This is the latest recevied weather packets stored in our database for station/object KD0RII. If no packets are shown the sender has not sent any weather packets the latest 10 day(s).
| Time | Temp. | Humidity | Pressure | Rain* | Wind** | Luminosity | Snow |
|---|---|---|---|---|---|---|---|
| 1778034725 | 10° C | 90% | 1014.8 hPa | 0 mm | - | 0 W/m² | - |
| 1778034422 | 10° C | 90% | 1014.6 hPa | 0 mm | - | 0 W/m² | - |
| 1778034119 | 9.44° C | 89% | 1014.5 hPa | 0 mm | - | 0 W/m² | - |
| 1778033817 | 9.44° C | 89% | 1014.4 hPa | 0 mm | - | 0 W/m² | - |
| 1778033514 | 9.44° C | 89% | 1014.4 hPa | 0 mm | - | 0 W/m² | - |
| 1778033211 | 9.44° C | 89% | 1014.2 hPa | 0 mm | - | 0 W/m² | - |
| 1778032909 | 9.44° C | 88% | 1014.3 hPa | 0 mm | - | 0 W/m² | - |
| 1778032606 | 9.44° C | 88% | 1014.2 hPa | 0 mm | - | 0 W/m² | - |
| 1778032303 | 9.44° C | 88% | 1014 hPa | 0 mm | - | 0 W/m² | - |
| 1778032001 | 9.44° C | 87% | 1013.8 hPa | 0 mm | - | 0 W/m² | - |
| 1778031696 | 9.44° C | 87% | 1013.8 hPa | 0 mm | - | 0 W/m² | - |
| 1778031395 | 10° C | 87% | 1013.8 hPa | 0 mm | - | 0 W/m² | - |
| 1778031091 | 10° C | 86% | 1013.6 hPa | 0 mm | - | 0 W/m² | - |
| 1778030787 | 10° C | 86% | 1013.6 hPa | 0 mm | - | 1 W/m² | - |
| 1778030484 | 10.56° C | 86% | 1013.6 hPa | 0 mm | - | 1 W/m² | - |
| 1778030182 | 10.56° C | 85% | 1013.5 hPa | 0 mm | - | 3 W/m² | - |
| 1778029878 | 10.56° C | 85% | 1013.2 hPa | 0 mm | - | 6 W/m² | - |
| 1778029572 | 11.11° C | 84% | 1013.5 hPa | 0 mm | - | 9 W/m² | - |
| 1778029268 | 11.11° C | 84% | 1013.6 hPa | 0 mm | - | 12 W/m² | - |
| 1778028965 | 11.11° C | 83% | 1013.2 hPa | 0 mm | - | 15 W/m² | - |
| 1778028662 | 11.11° C | 83% | 1013.2 hPa | 0 mm | - | 13 W/m² | - |
| 1778028359 | 11.11° C | 82% | 1013.2 hPa | 0 mm | - | 12 W/m² | - |
| 1778028055 | 11.11° C | 82% | 1013.5 hPa | 0 mm | - | 17 W/m² | - |
| 1778027751 | 11.67° C | 81% | 1013.3 hPa | 0 mm | - | 23 W/m² | - |
| 1778027448 | 11.67° C | 81% | 1013.1 hPa | 0 mm | - | 36 W/m² | - |
* Rain latest hour (hover to see other rain measurements)
** Current wind speed in m/s (hover to see current wind gust speed)